GFSGL_700_temp_057.txt.gz
Temp
12 12 11 12 12 12 11 11 11 11 11 10 11 11 11 11 11 11 11 11 11 11 11 10 10 10 10 11 11 11 11 11 11 11 11 11 11 11 11 11 11 11 11
12 12 12 12 12 12 12 12 11 11 11 11 11 11 11 11 12 12 12 12 11 11 11 11 11 11 11 11 11 11 11 11 11 11 11 11 11 11 11 11 11 11 11
12 12 12 12 12 12 12 12 12 12 11 11 11 11 11 11 12 12 12 12 12 11 11 11 11 11 11 11 11 11 11 11 12 12 12 12 12 11 12 12 12 12 11
12 12 12 13 13 13 12 12 12 12 12 12 12 12 11 11 11 12 12 12 12 12 12 11 11 11 11 11 11 11 11 12 12 12 12 12 12 12 12 12 12 12 12
13 12 13 13 13 13 12 12 12 12 12 12 12 12 12 12 12 12 12 12 12 12 12 12 12 12 12 12 12 12 12 12 12 12 13 13 13 13 13 13 13 13 13
14 13 13 13 13 13 13 13 13 13 12 12 12 12 12 12 12 12 12 12 12 12 12 12 12 12 13 13 13 13 13 13 13 13 14 14 14 13 13 13 12 12 13
14 13 13 13 13 14 13 13 13 13 13 13 13 13 13 13 13 12 12 12 12 12 12 12 12 13 13 13 13 13 13 13 14 14 14 14 14 13 12 13 13 12 12
14 14 13 13 13 14 14 14 14 14 13 13 13 13 13 13 13 13 13 13 13 13 13 13 13 13 13 13 13 14 14 13 13 13 14 14 13 14 13 13 13 13 14
15 14 14 13 14 15 15 14 14 14 14 14 13 13 13 13 13 13 13 13 13 13 13 13 14 13 13 13 13 14 14 14 13 13 13 13 14 14 13 13 14 13 14
16 15 15 15 15 15 15 15 14 14 14 14 14 14 13 13 13 13 13 14 15 15 15 15 15 15 14 14 14 14 15 15 14 14 15 15 14 14 14 13 13 14 13
15 15 14 14 14 14 14 14 14 14 14 14 14 14 14 15 14 14 15 15 15 15 15 16 15 15 15 15 15 15 15 15 15 15 15 15 15 15 14 15 14 14 12
15 15 14 14 13 14 14 14 14 14 14 15 15 15 16 16 16 15 15 15 15 16 16 16 16 16 15 15 16 16 16 15 16 16 16 15 15 15 15 15 15 15 15
15 15 14 14 14 14 14 14 14 14 15 15 15 15 15 15 15 14 14 15 15 16 16 16 16 16 16 16 16 16 16 16 16 16 16 15 15 15 15 15 15 15 15
16 15 15 14 15 14 14 15 15 15 15 15 16 16 15 15 15 15 15 15 15 16 16 16 16 16 16 16 16 16 16 16 16 16 15 15 14 15 15 15 15 14 14
16 15 15 15 15 15 15 15 16 16 15 15 15 15 15 15 15 15 15 15 15 15 15 16 16 15 16 16 16 16 16 16 16 15 14 14 14 14 14 14 14 14 14
16 16 15 15 14 14 15 15 15 15 14 14 15 15 15 15 15 15 15 15 15 15 15 15 15 15 16 15 16 16 16 15 15 14 14 14 14 14 14 14 14 14 14
13 14 14 15 11 14 14 14 14 14 15 15 14 14 14 14 14 14 14 15 14 15 15 15 15 16 16 15 15 15 15 14 14 14 14 14 14 14 14 13 13 13 13
12 13 12 12 10 11 14 15 14 14 14 15 15 15 15 14 14 14 14 14 14 14 15 15 15 16 15 15 15 14 14 14 14 13 14 14 14 14 13 13 13 13 13
12 10 9 11 12 14 15 15 15 15 14 14 14 14 15 14 14 13 14 14 14 14 14 14 15 15 15 15 14 14 13 13 13 13 13 13 13 13 13 13 12 12 12
10 10 11 12 13 14 13 14 14 14 14 14 14 14 14 13 13 14 14 14 14 14 14 14 14 14 14 14 13 13 13 13 13 13 13 13 13 13 13 12 12 12 12
12 12 13 13 12 12 13 13 13 13 13 13 13 13 13 13 13 13 14 14 13 13 13 13 13 13 13 13 13 13 13 13 13 13 12 13 13 12 12 12 12 11 11
10 11 11 11 11 11 11 11 11 12 12 12 12 12 12 11 12 12 12 13 13 13 13 13 12 12 13 12 12 12 12 12 12 12 12 12 12 11 11 11 11 10 10
9 9 9 10 10 10 10 11 11 11 11 11 12 12 11 11 11 12 12 12 13 13 13 13 13 13 12 12 12 12 12 11 11 11 11 11 10 10 10 10 9 9 9
8 9 9 9 9 9 10 10 11 11 11 11 11 11 11 11 10 10 10 11 11 11 12 12 12 12 12 12 11 11 10 10 10 9 9 9 9 9 9 8 8 8 7
9 9 9 9 9 9 10 10 10 10 10 10 11 11 11 11 11 10 10 9 9 9 10 10 10 10 10 10 9 9 9 9 8 8 7 7 7 7 7 7 7 7 6
8 8 8 9 9 9 9 10 10 10 10 10 9 9 10 9 9 8 7 7 7 7 7 7 7 7 8 8 8 8 7 7 7 7 7 6 6 6 6 6 6 5 5

GFSGL_700_temp_060.txt.gz
Temp
13 13 13 12 12 11 11 11 11 11 11 11 11 12 12 12 11 11 11 11 11 11 11 10 11 11 10 10 11 11 11 11 11 11 12 12 12 12 12 12 12 12 12
13 13 13 13 12 12 11 11 11 11 11 11 11 12 12 12 12 12 12 11 12 11 11 11 11 11 11 11 11 11 11 11 11 11 12 12 12 12 12 12 12 12 12
13 13 13 13 13 12 12 11 11 12 12 11 12 12 12 12 12 12 12 12 12 12 12 12 11 11 12 11 11 11 11 12 12 12 12 12 12 12 12 12 12 12 12
13 13 13 13 13 13 12 12 12 12 12 12 12 12 12 12 12 12 12 12 12 12 12 12 12 12 12 12 12 12 12 12 12 12 13 13 13 13 13 13 13 13 13
13 13 13 13 13 13 13 12 12 12 12 12 12 12 12 12 12 12 12 12 12 12 12 12 12 12 12 12 12 12 12 12 12 13 13 13 13 13 13 13 14 13 13
14 14 13 13 13 13 13 13 12 12 12 12 12 13 13 13 13 13 12 12 12 12 12 12 12 12 13 13 13 13 13 13 13 13 14 14 14 14 13 13 13 13 14
15 14 13 13 13 13 13 13 13 13 13 13 13 13 13 13 13 12 12 12 12 12 12 12 13 13 13 13 13 13 13 13 14 14 15 14 14 13 13 14 14 14 14
15 14 14 14 13 13 13 13 13 13 13 13 13 13 13 13 13 13 12 12 13 13 13 13 13 13 13 13 13 14 14 14 14 14 14 15 14 14 14 14 15 15 15
16 15 14 14 14 13 13 13 14 14 14 14 14 14 14 13 13 13 13 13 13 14 14 13 14 14 14 14 14 14 14 15 14 15 15 15 15 14 14 14 14 14 14
16 15 15 14 14 13 13 13 14 14 14 14 14 14 14 14 13 13 13 13 14 14 14 14 14 14 14 14 14 14 15 15 15 15 15 15 15 15 14 13 14 14 14
17 16 15 14 14 13 13 13 14 14 14 14 14 14 14 14 14 14 14 15 15 15 15 15 15 15 15 14 14 15 15 15 15 15 15 15 15 14 14 14 14 14 14
16 16 15 14 14 13 13 14 14 14 14 14 14 14 14 14 14 14 15 15 15 15 15 15 15 15 15 14 15 15 15 15 16 16 16 15 15 15 14 14 14 14 14
16 16 16 15 14 14 14 14 14 15 15 15 15 15 15 15 15 15 15 15 15 16 16 15 15 15 16 15 16 16 16 16 16 16 16 16 16 15 14 14 14 14 14
16 16 15 14 14 14 13 14 14 14 14 14 15 15 15 15 15 15 15 15 15 15 16 16 15 16 16 16 16 16 16 16 16 16 16 16 15 14 14 14 14 14 14
16 16 15 15 14 14 14 14 14 14 14 14 14 14 15 14 15 14 14 15 15 15 15 15 16 16 15 15 15 15 16 16 15 16 16 15 14 14 14 14 14 14 14
16 16 15 15 15 14 14 14 14 14 14 14 14 14 14 14 15 15 15 14 15 15 15 15 15 15 15 15 15 15 15 15 15 15 15 15 14 14 14 14 14 14 13
16 16 16 15 15 14 14 14 14 14 14 14 14 14 15 16 15 14 14 15 14 14 14 14 14 14 15 15 15 15 15 15 15 15 14 14 14 13 14 14 14 13 13
13 16 13 14 15 14 14 14 14 14 14 12 13 14 14 14 14 14 14 14 14 14 14 14 14 14 14 14 15 15 15 15 15 14 14 14 13 13 13 13 13 13 13
14 13 11 12 12 12 13 13 12 12 13 12 12 13 14 14 14 14 14 14 13 13 14 14 14 14 14 14 14 15 15 14 14 14 13 13 13 13 13 13 13 13 13
9 9 10 11 10 11 10 11 12 11 14 12 13 13 14 14 14 14 14 14 14 14 14 14 14 14 14 14 14 14 14 14 14 14 13 13 13 13 13 13 13 13 12
9 10 10 10 11 10 9 11 13 13 12 11 11 13 14 14 13 13 13 13 13 13 13 14 14 14 14 13 13 13 13 13 13 13 13 13 13 13 13 12 12 12 11
8 8 9 10 11 11 11 11 11 11 11 12 12 13 13 13 13 13 13 13 13 13 13 13 13 13 12 12 12 12 12 12 12 12 12 12 12 12 12 11 11 11 10
8 8 9 9 9 9 10 10 9 10 11 11 12 12 12 12 12 12 12 12 12 12 12 12 12 12 12 12 12 12 12 11 11 11 11 11 10 10 10 10 10 10 9
7 7 8 8 9 9 9 9 9 11 11 11 11 11 11 11 11 11 12 12 12 12 11 11 11 11 11 11 11 11 11 10 10 9 9 9 9 9 9 9 8 8 8
7 7 8 8 8 8 8 9 10 10 10 11 10 10 10 10 10 10 11 11 11 11 11 11 11 11 11 11 10 10 10 10 9 8 8 8 8 8 7 7 7 7 7
6 7 7 8 8 8 8 9 9 9 9 9 10 10 9 10 10 10 10 10 10 11 11 11 11 10 10 10 9 9 8 8 7 7 6 7 7 6 5 5 5 6 6

GFSGL_700_temp_063.txt.gz
Temp
13 13 12 12 12 11 11 11 11 11 11 11 11 11 12 12 12 12 11 11 11 11 11 11 11 11 11 11 11 11 12 12 12 12 12 12 13 12 12 12 12 12 12
14 14 13 13 13 12 12 12 11 12 12 12 12 12 12 12 12 12 12 12 12 12 11 11 11 11 11 11 11 12 12 12 12 12 12 12 12 12 12 12 12 12 12
14 14 14 13 13 13 13 12 12 12 12 12 12 12 12 12 12 12 12 12 12 12 12 11 11 11 11 11 11 12 12 12 12 12 12 12 13 12 13 13 13 13 14
14 14 14 14 14 13 13 13 12 12 12 12 12 12 12 12 12 12 12 12 12 12 12 12 12 12 12 12 12 12 12 12 12 13 13 13 13 13 13 14 14 14 13
14 14 14 14 14 13 13 13 13 13 13 12 12 12 12 12 12 13 13 12 12 12 12 13 13 12 12 12 12 12 13 13 13 13 13 14 14 14 14 14 14 14 14
15 15 14 14 14 14 14 13 13 13 13 13 13 13 13 13 13 13 13 12 12 13 12 13 13 13 13 13 13 13 13 13 13 13 14 14 14 14 14 14 14 14 15
15 15 14 14 14 14 14 13 13 13 13 13 13 13 13 13 13 13 13 12 12 12 12 13 13 13 13 13 13 13 13 14 14 14 15 15 15 14 14 14 14 14 14
16 15 14 14 14 14 14 14 13 13 13 13 13 13 13 13 13 13 13 12 12 13 13 13 13 13 13 13 13 14 14 14 14 14 15 15 14 14 14 14 14 14 15
17 16 16 15 15 14 14 14 14 13 13 13 13 13 14 13 13 13 13 13 13 13 13 13 13 13 13 13 14 15 15 15 14 14 14 14 15 15 14 14 14 14 14
17 17 16 15 15 14 14 14 13 14 14 13 14 14 14 14 13 13 13 13 14 14 14 14 14 14 14 14 14 14 15 14 14 14 15 15 15 14 14 14 14 14 13
16 16 16 16 15 15 14 13 13 13 13 14 14 14 14 14 14 13 13 14 14 14 15 15 15 15 14 14 15 15 15 15 15 15 15 15 14 14 14 14 15 13 13
17 17 16 16 15 15 14 14 13 13 13 14 14 14 14 14 14 14 14 14 14 15 15 15 15 15 15 15 15 15 14 15 15 15 15 15 15 15 15 15 13 13 13
17 17 16 16 16 15 14 14 13 13 13 14 14 14 14 14 14 14 14 15 15 15 15 15 15 15 15 15 14 14 15 15 15 16 16 16 15 15 15 15 14 14 13
16 16 17 16 16 15 14 14 13 13 13 14 15 15 15 15 15 15 15 15 15 15 16 15 15 15 15 15 16 15 15 15 15 15 16 16 15 15 15 15 14 14 14
16 17 16 16 16 16 14 14 14 14 14 14 15 15 15 15 14 14 14 15 15 15 15 15 15 15 16 15 15 15 15 15 15 15 16 16 15 15 15 14 14 14 14
16 16 16 15 16 16 15 15 14 14 14 14 14 14 14 14 14 14 14 14 15 15 15 16 16 16 15 15 15 15 14 14 15 15 15 15 15 15 14 14 13 13 14
15 14 14 15 15 15 14 14 14 14 14 14 14 14 14 14 14 13 14 13 14 15 15 15 15 15 15 14 14 14 14 15 14 14 15 15 15 14 14 13 13 13 13
13 11 11 12 12 14 14 14 14 14 14 14 13 12 12 12 13 13 13 13 12 13 15 14 14 14 14 13 14 14 14 14 14 14 14 14 14 14 13 13 13 13 13
11 10 11 10 11 13 14 14 14 14 13 13 12 12 13 12 12 12 12 13 13 14 14 13 14 13 13 13 13 14 13 13 13 13 13 14 14 13 13 13 13 13 13
11 11 11 10 10 11 11 12 13 12 11 11 12 12 14 10 12 12 12 12 13 13 13 13 13 13 13 13 13 14 13 13 13 13 13 13 13 13 13 12 12 12 12
9 10 10 10 9 9 11 9 11 11 10 10 11 13 11 11 11 12 13 13 13 13 13 12 13 13 13 13 14 14 13 13 13 13 13 13 13 12 12 12 11 11 11
7 8 8 10 9 10 8 10 11 12 10 7 8 11 10 11 12 13 13 12 13 12 12 12 12 12 12 13 12 12 12 12 12 12 12 11 11 11 11 10 10 10 10
6 6 6 7 7 8 7 10 8 7 8 8 8 10 13 12 13 13 13 13 13 12 11 12 12 12 12 12 12 12 12 12 12 11 12 12 12 11 11 10 10 9 9
6 7 7 7 8 8 9 7 7 7 7 8 11 12 12 11 11 11 12 12 11 11 12 12 12 12 12 12 12 12 12 12 12 12 12 12 11 11 11 10 9 8 8
5 5 5 6 6 8 8 9 9 9 8 9 10 11 11 11 11 10 10 11 11 11 11 11 11 11 11 11 11 11 11 11 11 11 11 11 10 9 9 9 8 6 6
5 5 5 5 6 7 7 8 8 9 8 8 7 8 8 9 9 9 9 9 10 10 10 10 10 10 10 10 10 10 10 10 10 10 9 9 9 8 7 7 7 6 5

GFSGL_700_temp_069.txt.gz
Temp
12 12 13 13 12 12 12 12 12 11 12 12 12 12 12 12 11 11 11 11 12 12 11 11 11 11 11 11 12 12 12 12 11 12 12 12 12 12 12 12 12 12 13
13 13 12 13 12 12 12 12 12 12 11 12 13 12 12 12 12 12 11 12 12 12 12 12 11 11 12 12 12 12 12 12 12 12 12 12 12 12 12 12 13 13 14
13 13 13 13 13 13 12 12 12 12 12 11 12 13 12 12 12 12 12 12 12 12 12 12 12 12 12 12 12 12 12 12 12 12 12 12 12 12 13 13 14 15 14
14 14 14 14 14 14 13 13 13 13 12 12 12 12 13 12 12 12 12 12 12 12 12 12 12 12 12 12 12 12 12 12 12 12 13 13 13 13 14 15 15 14 14
15 14 14 14 14 13 13 13 13 13 13 13 12 12 12 13 12 12 12 12 12 12 12 12 12 12 12 12 12 12 12 12 12 12 13 13 13 14 15 15 15 14 14
15 14 14 14 14 14 14 14 13 14 13 13 13 13 13 13 13 12 12 12 12 12 12 12 13 12 13 13 13 12 12 13 13 13 13 14 14 14 14 14 14 15 15
14 14 14 14 14 14 14 14 14 14 14 14 13 13 13 13 13 12 12 12 12 12 12 12 12 12 13 13 13 13 13 13 13 14 14 14 15 14 14 14 14 15 15
12 14 14 14 14 14 14 14 14 14 14 14 14 13 13 13 13 12 12 12 12 12 12 12 12 12 12 13 13 13 13 14 14 14 14 14 15 14 14 14 14 15 16
12 11 13 15 14 14 14 14 14 14 14 14 14 14 13 13 13 12 12 12 13 13 12 12 12 12 12 12 13 13 14 14 13 13 14 14 14 14 14 15 15 16 16
12 12 12 14 15 14 14 13 13 13 14 14 14 14 13 13 13 12 12 12 12 13 13 12 12 13 12 12 12 13 14 14 14 14 15 15 14 14 14 15 15 15 15
13 11 11 13 15 15 14 14 13 13 13 14 14 14 13 13 13 13 12 12 12 12 13 13 13 13 13 13 13 13 14 13 14 14 14 14 14 14 15 15 15 15 15
12 12 12 12 13 15 15 15 14 14 13 13 13 14 14 14 13 13 13 12 12 13 13 13 13 13 13 13 13 14 14 14 14 14 14 14 14 15 15 15 15 15 15
12 14 14 14 13 15 16 16 15 14 14 14 13 13 13 14 14 13 13 13 12 13 13 13 13 13 14 14 14 14 14 14 14 14 14 14 15 15 15 15 15 15 15
12 13 13 13 14 14 16 16 16 15 15 15 14 14 13 13 14 13 13 13 13 13 13 13 14 14 14 15 15 15 14 14 14 14 14 15 14 14 15 15 15 15 14
13 13 13 14 14 14 15 15 16 16 15 15 15 14 14 13 13 13 13 13 13 13 13 13 14 14 14 15 15 15 14 14 14 14 14 14 14 14 14 14 14 14 14
13 13 13 13 14 14 14 15 15 16 16 16 15 14 14 14 13 13 13 14 13 13 13 13 14 14 14 14 14 14 14 14 13 14 14 14 14 14 14 14 14 14 14
12 12 13 13 13 13 15 15 15 15 16 16 15 15 14 14 13 13 12 13 12 13 14 13 13 13 13 13 13 13 13 13 13 13 13 14 14 13 13 13 14 14 14
11 11 11 12 13 14 15 15 15 16 16 16 14 14 13 13 13 13 13 12 13 13 13 13 12 12 12 12 13 13 13 13 13 13 13 13 13 13 13 13 12 13 13
12 10 9 10 11 12 13 14 14 15 15 15 12 13 13 13 13 12 13 12 12 12 12 11 11 12 12 12 12 12 11 11 11 12 13 13 12 13 13 12 12 12 12
10 10 9 9 11 10 10 12 12 12 12 12 11 11 12 12 13 12 11 11 11 11 11 11 12 12 12 12 10 12 10 10 10 11 12 12 12 12 12 12 12 12 12
7 8 9 8 9 8 9 9 11 10 12 11 11 11 11 11 11 11 11 10 10 10 10 10 10 10 10 10 10 10 8 9 9 10 12 12 12 12 11 11 11 11 11
6 7 7 8 9 8 10 9 10 10 10 10 10 10 11 12 11 10 10 10 11 10 10 11 11 10 11 8 11 9 9 10 10 11 10 9 9 10 10 11 11 11 11
7 7 7 8 8 8 8 10 9 10 10 10 10 10 11 12 11 10 10 9 9 10 10 10 10 9 8 8 10 10 11 10 11 10 8 8 9 10 10 10 10 10 10
6 6 6 7 7 8 8 8 8 9 9 9 9 10 10 10 10 10 10 8 9 10 10 9 8 9 8 9 10 8 8 9 8 7 7 9 10 10 10 10 10 10 10
4 4 6 6 7 6 6 7 8 7 8 8 8 8 8 8 8 8 7 9 6 9 8 7 7 8 10 10 10 8 8 7 8 8 9 9 9 10 9 9 9 9 9
3 3 3 3 4 4 5 6 6 6 7 6 6 6 6 7 7 7 7 7 7 7 8 7 8 9 9 9 9 8 8 8 8 9 9 9 8 8 8 8 8 8 8

GFSGL_700_temp_072.txt.gz
Temp
11 10 11 11 10 11 10 11 11 11 12 12 11 11 12 12 11 11 11 11 11 11 11 11 11 11 11 11 11 11 12 12 12 12 12 12 12 12 12 12 13 13 13
11 11 10 11 10 10 11 11 11 11 11 12 12 11 12 12 11 11 11 11 11 11 11 12 12 12 11 11 12 12 12 12 11 12 12 12 11 12 12 12 13 13 13
12 11 11 11 11 10 11 11 11 11 11 11 12 12 11 12 11 11 11 11 11 12 11 12 12 12 12 12 12 12 11 11 11 11 11 11 12 12 12 13 13 13 14
12 11 11 11 11 11 10 10 11 11 11 11 12 12 12 11 11 11 11 11 11 11 12 12 12 12 12 12 12 12 12 12 12 12 12 12 12 12 13 14 14 14 13
13 12 11 11 11 11 11 10 11 11 11 11 11 12 12 12 11 12 11 11 12 12 12 12 12 12 12 12 12 12 12 12 12 12 13 13 13 13 13 14 14 14 14
13 13 11 11 11 12 12 11 11 11 12 12 12 12 12 12 12 12 11 11 11 12 12 12 12 12 12 12 12 12 12 12 12 12 13 13 13 13 13 14 14 14 15
13 13 12 11 11 12 12 12 12 12 12 12 12 12 12 12 12 12 11 11 11 11 11 12 12 12 12 12 12 12 12 12 12 13 13 13 13 13 14 14 14 14 15
12 12 13 13 12 12 12 13 13 12 12 12 12 12 12 13 12 12 11 11 11 12 12 12 12 12 12 12 12 12 12 12 13 13 13 13 13 13 13 14 15 15 15
12 12 12 11 11 12 12 12 13 13 12 13 13 13 13 13 12 12 12 11 12 12 12 12 12 12 11 11 12 12 12 13 12 12 13 13 13 13 14 15 14 15 15
12 13 12 12 11 11 12 12 12 12 13 12 13 13 13 13 12 12 12 11 12 12 12 12 12 12 12 11 11 12 13 13 12 12 13 13 13 13 13 14 14 15 15
12 13 12 12 12 12 12 11 11 12 12 12 12 13 13 13 13 12 12 12 12 12 12 12 12 12 12 11 11 12 13 12 13 13 14 13 13 13 13 14 15 15 15
13 11 12 11 11 11 12 12 11 12 13 13 12 13 13 13 13 13 12 12 12 12 13 13 12 12 12 12 12 13 13 13 13 14 14 13 13 13 14 14 14 14 15
11 11 12 11 10 11 12 13 11 11 13 13 13 13 13 13 13 13 13 12 12 12 13 13 12 12 12 12 12 13 13 13 13 14 13 13 13 13 14 14 14 14 14
10 11 11 11 11 12 12 13 11 12 13 13 13 13 13 13 13 13 13 13 13 12 13 13 13 12 12 13 13 13 13 13 13 14 14 13 13 13 14 14 14 14 14
12 12 12 12 12 12 12 12 13 13 13 13 14 13 13 13 13 13 12 12 12 12 12 12 12 13 13 13 13 13 13 13 14 14 14 13 13 13 14 14 14 14 14
11 12 12 12 13 13 12 13 13 13 13 13 14 14 14 14 14 13 13 12 12 11 11 12 12 13 13 13 13 14 14 14 14 14 13 13 13 13 13 13 13 13 13
11 11 11 12 12 12 12 13 13 13 12 13 13 14 15 15 14 14 13 13 12 11 12 12 13 13 13 13 13 14 14 14 13 13 13 12 12 12 13 13 13 12 13
10 11 11 12 12 12 13 13 12 11 11 12 13 14 15 15 14 14 13 13 12 12 12 12 13 13 13 13 12 13 13 12 12 12 12 12 11 12 12 11 12 12 12
11 11 11 11 12 12 12 12 12 12 12 12 11 14 15 15 13 14 13 13 12 12 12 12 12 12 12 12 12 12 12 11 11 12 12 12 11 11 10 9 9 11 12
10 11 11 12 12 12 12 12 11 12 12 12 11 12 12 13 13 13 13 12 12 12 12 12 11 11 11 11 11 11 11 11 10 10 11 11 10 10 9 8 9 9 11
8 9 10 11 11 12 12 10 9 10 11 11 11 11 11 11 11 11 12 12 12 12 12 11 11 12 12 12 12 12 12 11 11 11 9 10 10 11 9 7 8 8 9
5 6 7 10 10 10 10 10 11 10 10 11 12 11 11 11 11 11 12 11 11 12 12 12 11 10 10 11 11 10 9 10 10 11 11 10 9 11 8 7 8 8 9
5 5 6 6 7 8 8 8 8 9 9 8 9 10 10 11 11 12 13 12 11 10 11 11 10 10 9 9 9 9 10 10 10 10 9 9 8 6 6 8 7 9 9
5 5 6 6 6 7 8 8 9 9 9 10 9 9 10 10 11 11 11 12 11 9 10 11 9 8 8 8 8 9 9 9 9 9 9 8 8 8 7 8 9 7 7
3 4 5 5 6 6 7 7 8 8 7 7 8 8 8 8 9 8 9 10 10 9 9 10 9 9 8 8 8 8 8 8 7 7 9 10 7 7 5 6 7 8 8
1 1 2 4 5 6 6 7 7 7 8 7 8 8 8 7 7 7 6 7 7 7 6 7 6 6 6 7 6 7 7 7 7 7 7 7 8 8 8 8 8 8 8